Probability
6 13 32 32 39 42 45 48 48 52 52 48 52 55 58 61 58 58 58 55 52 52 55 55 58 58 52 45 48 55 48 45 42 42 32 39 45 39 35 42 45 39 65
6 16 39 32 32 39 42 42 52 52 52 42 52 55 58 61 58 58 45 48 48 52 52 48 48 45 45 48 48 45 39 35 35 35 35 32 42 32 42 45 42 39 39
13 10 26 35 32 35 35 42 39 45 45 45 58 58 52 48 52 48 42 45 45 45 45 39 39 39 39 35 42 42 32 39 35 32 39 23 32 42 42 45 39 48 42
10 16 23 32 32 35 32 32 39 45 45 45 55 52 48 48 52 45 45 39 35 32 32 35 32 35 32 26 23 26 29 23 19 32 19 23 13 35 35 39 35 32 29
16 23 26 35 42 35 32 32 42 45 48 45 52 48 45 45 45 39 42 39 29 32 32 32 32 26 26 29 23 19 23 19 26 23 10 10 10 35 39 29 29 29 26
16 16 26 39 39 45 39 35 35 48 45 39 42 42 42 32 32 39 39 29 32 32 29 26 26 19 23 16 13 13 13 13 16 3 3 3 16 26 26 26 23 23 23
13 16 19 45 45 52 42 42 39 39 39 42 35 35 39 39 26 26 23 23 29 23 23 16 16 16 19 19 16 13 13 26 6 3 3 3 10 26 23 23 19 19 19
13 16 19 42 48 52 48 48 45 32 35 32 32 32 29 35 32 23 23 23 16 19 23 23 26 23 19 16 16 16 19 13 3 0 0 0 10 19 16 19 26 35 29
13 13 16 16 39 45 48 45 35 35 32 29 32 29 29 23 26 19 16 19 16 13 10 16 16 19 16 10 10 6 6 13 3 0 0 3 23 19 23 26 32 32 26
3 6 13 13 10 19 29 35 32 29 29 32 29 32 26 26 23 16 13 13 16 10 6 10 13 13 13 10 6 6 6 3 3 3 0 6 23 23 26 23 35 29 29
3 3 3 10 10 10 10 13 32 32 26 29 19 29 26 10 10 10 10 10 13 10 6 13 13 16 13 6 10 3 3 3 3 0 0 16 26 26 26 26 26 23 23
3 3 3 3 6 3 6 16 16 13 16 10 10 6 6 10 6 3 6 10 10 10 10 10 19 16 6 6 6 3 3 3 3 3 0 19 23 23 19 23 19 19 16
0 3 3 0 3 3 3 10 13 13 16 13 6 10 6 6 6 6 6 6 10 10 3 10 10 3 3 0 0 0 3 0 0 0 0 19 23 23 16 16 19 6 6
0 0 0 0 0 3 6 6 13 10 13 10 6 10 10 10 10 10 10 6 6 6 3 3 3 3 0 3 0 0 0 0 0 0 0 16 19 19 16 16 10 3 6
0 0 0 0 0 0 0 6 3 10 10 10 10 10 6 10 10 10 10 10 10 3 3 3 3 3 0 0 0 0 0 0 0 0 0 10 13 16 13 10 6 3 3
3 3 0 0 0 0 0 3 3 6 6 10 10 3 6 10 10 10 10 10 6 3 3 3 3 3 0 0 0 0 0 0 0 0 0 0 6 16 13 13 3 3 3
3 3 0 0 0 0 0 3 6 3 0 3 10 0 3 3 6 6 6 6 6 3 3 3 3 3 0 0 0 0 0 0 0 0 0 0 0 0 6 3 3 3 3
3 3 3 3 3 3 3 3 3 6 3 3 6 6 3 3 3 6 6 6 6 6 6 3 3 3 0 0 0 0 0 0 0 0 0 0 0 0 0 3 3 3 0
6 10 10 6 3 3 0 0 3 3 3 6 10 6 3 6 6 6 6 6 6 6 6 3 3 3 3 3 0 0 0 0 0 0 0 0 0 0 0 0 0 3 3
6 10 10 6 6 3 0 3 3 3 3 6 6 6 6 6 10 10 10 10 6 10 6 3 3 3 3 3 0 0 0 0 0 0 0 0 0 0 0 0 0 0 0
6 6 3 6 3 3 3 3 3 6 6 6 10 3 6 6 10 10 10 10 6 6 3 3 3 3 3 3 3 0 0 0 0 0 0 0 0 0 0 0 0 0 0
3 3 3 3 6 3 3 3 3 10 6 6 3 3 3 3 3 3 3 10 10 10 3 3 3 3 3 3 3 3 0 0 0 0 0 0 0 0 0 0 0 0 0
3 3 3 3 3 6 3 3 3 6 6 6 3 3 3 3 0 0 3 0 0 3 6 3 0 0 3 3 3 0 0 0 0 0 0 0 0 0 0 0 0 0 0
10 3 3 3 3 0 3 3 3 3 6 6 3 3 0 0 0 0 0 0 0 0 3 0 0 0 0 0 0 0 0 0 0 0 0 0 0 0 0 0 0 0 0
13 10 3 3 6 3 3 3 3 3 6 6 6 3 0 0 0 0 0 0 0 0 0 0 0 0 0 0 0 0 0 0 0 0 0 0 0 0 0 0 0 0 0
13 13 13 6 6 6 3 3 3 3 3 6 6 3 0 0 0 0 0 0 0 3 0 0 0 0 0 0 0 0 0 0 0 0 0 0 0 0 0 0 0 0 0
Height
5871 5871 5872 5872 5872 5872 5872 5872 5872 5872 5872 5872 5872 5872 5872 5872 5872 5871 5871 5872 5872 5872 5872 5872 5872 5872 5873 5873 5874 5874 5874 5874 5875 5875 5875 5875 5875 5875 5876 5876 5876 5876 5876
5871 5872 5872 5872 5872 5872 5872 5872 5872 5873 5872 5872 5872 5872 5872 5872 5871 5871 5871 5872 5872 5872 5872 5871 5871 5872 5872 5873 5873 5873 5874 5874 5874 5875 5875 5875 5875 5875 5875 5875 5875 5875 5875
5871 5871 5872 5872 5872 5872 5872 5872 5872 5872 5872 5872 5872 5872 5872 5871 5871 5871 5871 5872 5872 5872 5871 5871 5871 5872 5872 5872 5873 5873 5873 5873 5874 5874 5874 5875 5874 5874 5874 5874 5874 5875 5874
5871 5871 5871 5872 5872 5872 5872 5872 5872 5872 5872 5872 5872 5872 5872 5872 5871 5871 5871 5872 5872 5872 5872 5872 5871 5872 5872 5872 5872 5872 5873 5873 5873 5873 5874 5874 5874 5874 5874 5874 5873 5873 5873
5871 5871 5872 5872 5872 5872 5872 5872 5872 5872 5872 5872 5872 5872 5871 5871 5871 5871 5871 5872 5872 5872 5872 5872 5872 5872 5872 5872 5872 5872 5872 5872 5872 5873 5873 5873 5873 5873 5873 5873 5873 5872 5872
5871 5871 5871 5871 5872 5872 5872 5872 5872 5872 5872 5872 5872 5871 5871 5871 5871 5871 5871 5871 5872 5872 5872 5872 5872 5872 5871 5871 5871 5872 5872 5872 5872 5872 5872 5872 5872 5872 5872 5872 5872 5872 5871
5870 5870 5871 5871 5871 5872 5872 5872 5872 5872 5871 5871 5871 5871 5871 5871 5871 5871 5871 5871 5871 5872 5872 5872 5871 5871 5871 5871 5871 5871 5871 5871 5871 5871 5871 5871 5871 5871 5871 5871 5871 5870 5870
5869 5870 5870 5870 5871 5871 5871 5871 5871 5871 5871 5871 5871 5871 5871 5871 5871 5871 5871 5871 5871 5871 5871 5871 5871 5871 5871 5871 5870 5870 5870 5870 5870 5870 5870 5870 5870 5869 5869 5869 5869 5869 5868
5869 5869 5869 5870 5870 5870 5870 5870 5870 5870 5870 5870 5870 5870 5870 5870 5870 5870 5870 5870 5870 5870 5870 5870 5870 5870 5870 5869 5869 5869 5869 5869 5869 5868 5868 5868 5868 5868 5868 5868 5867 5867 5867
5867 5868 5868 5868 5869 5869 5869 5869 5869 5869 5869 5869 5869 5869 5869 5869 5868 5869 5869 5869 5869 5869 5869 5869 5869 5869 5869 5868 5868 5868 5867 5867 5867 5867 5867 5867 5867 5867 5866 5866 5866 5865 5865
5866 5866 5867 5867 5867 5867 5867 5867 5867 5868 5867 5867 5867 5868 5868 5868 5868 5867 5868 5868 5868 5868 5868 5868 5867 5867 5867 5867 5866 5866 5866 5866 5865 5865 5865 5865 5865 5865 5865 5864 5864 5863 5863
5865 5865 5865 5865 5866 5866 5866 5866 5866 5866 5866 5866 5866 5866 5866 5866 5866 5866 5866 5866 5866 5866 5866 5866 5866 5866 5865 5865 5865 5864 5864 5864 5864 5863 5863 5863 5863 5863 5863 5862 5862 5861 5861
5863 5864 5864 5864 5864 5864 5864 5864 5864 5864 5864 5864 5864 5864 5864 5864 5864 5864 5864 5864 5865 5865 5864 5864 5864 5864 5864 5863 5863 5863 5862 5862 5862 5861 5861 5861 5861 5861 5861 5861 5860 5859 5859
5862 5862 5862 5862 5862 5862 5862 5862 5863 5862 5862 5862 5862 5862 5862 5862 5862 5862 5863 5862 5862 5862 5862 5862 5862 5862 5861 5861 5861 5861 5861 5860 5860 5860 5860 5860 5860 5859 5859 5859 5858 5857 5857
5860 5860 5860 5860 5860 5860 5860 5860 5861 5861 5861 5861 5860 5860 5860 5860 5860 5860 5861 5860 5860 5860 5860 5860 5860 5859 5859 5859 5859 5859 5859 5859 5859 5859 5858 5858 5858 5858 5857 5857 5856 5855 5855
5858 5858 5858 5858 5858 5858 5858 5858 5858 5858 5858 5858 5858 5858 5858 5858 5858 5858 5858 5858 5858 5858 5858 5858 5857 5857 5857 5857 5857 5857 5857 5857 5857 5857 5857 5856 5856 5856 5855 5854 5854 5853 5852
5856 5856 5856 5856 5856 5856 5855 5855 5856 5856 5856 5856 5856 5856 5856 5856 5856 5856 5856 5856 5856 5855 5855 5855 5855 5855 5855 5855 5855 5855 5855 5855 5855 5855 5855 5854 5854 5853 5853 5852 5852 5851 5850
5853 5854 5853 5853 5853 5853 5853 5853 5853 5853 5853 5853 5853 5853 5853 5853 5853 5853 5853 5853 5853 5853 5853 5853 5853 5853 5853 5853 5853 5853 5853 5853 5853 5853 5852 5852 5852 5851 5850 5850 5849 5848 5847
5851 5851 5851 5851 5850 5850 5850 5850 5850 5850 5850 5850 5850 5850 5850 5850 5851 5851 5850 5851 5850 5850 5850 5850 5850 5851 5850 5850 5851 5851 5850 5850 5850 5850 5850 5849 5849 5848 5848 5847 5847 5845 5844
5848 5848 5848 5848 5847 5848 5848 5847 5847 5847 5847 5847 5847 5847 5847 5847 5848 5848 5848 5848 5848 5848 5848 5848 5848 5848 5848 5848 5848 5848 5848 5848 5847 5847 5847 5846 5846 5845 5845 5844 5844 5842 5842
5844 5845 5845 5844 5844 5844 5844 5844 5844 5844 5844 5844 5844 5844 5844 5844 5844 5844 5845 5845 5845 5845 5845 5845 5845 5845 5845 5845 5845 5845 5845 5845 5845 5844 5844 5843 5843 5842 5842 5841 5840 5840 5839
5841 5841 5841 5841 5841 5841 5841 5841 5841 5841 5841 5841 5841 5841 5841 5841 5841 5841 5841 5841 5842 5842 5842 5842 5842 5842 5842 5842 5842 5842 5842 5842 5841 5841 5841 5840 5840 5839 5838 5838 5837 5836 5836
5838 5838 5837 5837 5837 5837 5837 5837 5837 5837 5837 5837 5837 5837 5837 5837 5837 5838 5838 5838 5838 5838 5839 5839 5839 5839 5839 5839 5839 5839 5839 5838 5838 5838 5837 5837 5836 5836 5835 5834 5834 5833 5832
5834 5833 5833 5833 5833 5833 5833 5833 5833 5833 5834 5834 5833 5833 5833 5833 5834 5834 5834 5834 5834 5835 5835 5835 5835 5835 5836 5835 5835 5835 5835 5835 5835 5834 5834 5833 5833 5832 5831 5831 5830 5829 5829
5829 5829 5828 5828 5828 5828 5828 5828 5828 5829 5829 5829 5829 5829 5829 5829 5829 5830 5830 5830 5830 5831 5831 5831 5831 5832 5832 5832 5831 5831 5831 5831 5831 5830 5830 5829 5829 5828 5827 5827 5826 5825 5824
5824 5824 5823 5823 5823 5823 5823 5823 5823 5823 5824 5824 5824 5824 5824 5825 5825 5825 5825 5826 5826 5826 5827 5827 5827 5827 5827 5827 5827 5827 5827 5827 5826 5826 5826 5825 5824 5824 5823 5822 5822 5821 5820
Wind_Speed
1 2 2 1 1 1 2 2 2 1 1 2 2 2 2 2 2 2 2 2 3 3 3 3 3 3 3 3 3 2 2 2 2 2 3 3 2 3 3 4 5 5 5
2 2 2 3 2 2 2 2 2 2 2 2 2 2 2 2 2 2 2 2 2 3 3 3 4 4 4 4 4 4 4 4 3 3 3 3 4 4 4 5 5 6 6
2 2 3 3 3 3 3 3 3 3 3 3 2 3 2 2 1 0 1 1 2 3 3 2 3 4 4 5 4 4 5 5 4 4 3 4 4 5 5 6 6 6 6
3 2 2 3 3 3 3 3 3 3 3 3 3 3 2 1 1 1 1 1 2 2 2 2 2 3 4 4 4 5 6 5 5 5 5 5 6 6 6 6 6 5 5
3 3 3 2 2 3 3 3 3 3 4 4 3 3 2 2 1 2 2 2 2 1 2 2 2 3 3 4 4 4 5 5 5 5 5 6 6 6 6 6 6 6 6
4 4 3 3 3 3 3 3 4 4 4 4 4 4 3 3 3 3 4 3 2 1 2 2 3 3 3 4 4 4 4 4 4 5 6 6 6 7 7 7 7 8 8
5 4 4 4 4 4 4 4 5 5 5 4 4 4 4 4 4 4 4 4 4 4 4 4 4 3 3 4 5 5 5 5 6 6 7 7 7 7 8 8 8 9 9
5 5 5 5 5 5 6 6 6 6 6 5 5 6 6 6 5 5 5 5 5 5 5 5 5 5 5 5 5 5 6 6 6 7 8 8 8 8 8 8 9 9 9
7 7 7 7 7 7 7 7 7 7 7 7 7 7 7 7 7 7 6 5 5 6 6 6 7 7 7 7 7 7 7 7 7 8 8 8 8 8 8 8 9 10 11
8 8 8 8 8 8 8 8 8 9 9 8 8 8 8 8 8 8 7 7 7 8 8 8 8 8 8 8 8 8 8 8 8 8 8 9 9 9 9 9 10 10 11
8 9 9 9 9 9 9 9 9 9 10 10 9 9 9 9 9 9 10 9 9 8 8 9 9 9 9 10 10 9 9 9 9 9 9 9 9 9 9 10 10 11 11
8 9 9 9 9 9 9 9 9 10 10 10 10 10 10 10 10 10 10 10 10 10 10 11 10 10 10 10 10 10 10 10 10 10 10 9 10 10 11 11 11 11 12
9 9 9 9 9 10 10 10 10 10 10 10 10 10 10 11 11 11 11 11 12 12 12 12 11 11 10 10 10 10 10 10 10 9 9 10 10 10 10 11 12 12 12
10 10 10 10 10 10 10 11 11 11 11 11 10 11 11 11 11 11 12 12 12 12 13 13 12 11 10 11 10 10 9 9 9 8 9 9 10 10 11 11 11 11 11
10 10 10 10 10 11 11 12 12 12 12 12 12 12 11 12 12 12 11 12 11 11 11 11 12 11 10 10 10 9 9 9 8 8 9 10 10 11 11 11 11 11 12
11 11 11 11 11 12 12 12 12 13 13 13 13 12 12 12 12 12 12 12 11 11 11 11 11 11 11 11 10 10 9 9 9 9 9 10 10 11 11 12 12 12 12
12 13 13 13 12 13 13 13 13 14 14 14 14 14 14 13 13 12 12 12 11 11 11 11 11 11 11 11 11 11 10 10 10 10 10 11 11 11 12 12 12 12 12
14 14 14 14 13 13 14 13 14 14 15 15 15 15 15 14 13 13 13 12 11 12 12 11 11 11 11 11 11 11 11 12 12 12 12 11 11 12 12 12 12 12 13
14 14 14 14 14 14 14 14 14 14 15 15 15 15 15 15 14 14 13 13 13 13 12 11 11 11 11 11 11 11 12 12 12 12 12 12 12 12 13 13 13 13 13
14 14 14 14 15 15 15 15 15 15 15 15 15 15 15 15 15 15 14 14 14 13 13 13 12 12 12 12 12 12 12 12 12 13 13 13 13 13 13 13 13 13 14
15 15 15 16 15 15 15 15 15 15 15 14 14 14 15 16 16 16 15 15 15 14 14 13 13 13 12 12 13 12 12 13 13 14 14 14 14 14 14 13 13 14 15
16 16 16 16 17 17 16 16 16 16 15 15 15 15 15 16 16 16 16 15 15 15 15 14 13 13 13 13 13 13 13 14 14 14 14 14 14 14 14 15 15 15 15
17 18 18 17 18 18 18 17 17 17 16 16 16 16 17 16 16 16 16 16 15 15 15 14 14 13 13 13 14 14 14 14 14 14 14 15 15 15 15 15 15 15 16
19 19 19 19 19 18 18 18 18 17 17 17 17 17 18 18 17 17 16 16 16 16 15 15 15 15 14 14 15 15 15 16 15 15 15 15 15 15 16 16 15 15 16
20 20 20 20 19 19 19 20 20 19 19 18 18 18 18 18 18 18 18 18 17 16 15 15 16 16 16 17 17 16 17 17 16 16 16 16 16 16 16 16 16 16 16
21 20 21 21 21 21 21 21 21 20 20 20 20 19 19 19 19 18 19 19 18 17 17 17 17 17 18 18 18 18 17 17 17 17 17 17 17 17 17 17 17 17 17
Wind_Direction
211 207 197 213 235 231 237 239 264 274 272 270 283 283 280 271 280 282 260 250 258 264 286 279 244 245 242 231 235 247 264 272 276 273 265 256 251 251 257 258 263 270 270
232 229 226 232 250 261 259 258 274 282 283 284 290 292 292 290 285 276 257 246 253 268 280 279 253 256 256 248 247 244 257 264 275 278 282 276 263 266 273 274 269 273 266
242 246 250 253 252 256 261 269 280 282 282 285 290 295 306 319 315 295 276 274 281 281 293 285 256 262 262 254 256 260 264 267 270 273 280 283 278 280 282 276 268 269 269
248 245 247 253 256 256 261 277 294 300 299 298 298 301 317 328 295 311 293 284 285 283 291 290 286 279 278 264 264 266 265 265 267 269 273 276 277 281 286 285 285 275 269
247 251 253 254 254 266 276 288 296 303 314 308 293 304 312 323 306 281 288 277 283 297 307 310 311 296 287 278 272 266 267 260 266 269 271 276 276 279 283 290 295 290 283
253 252 253 252 254 268 287 295 296 297 304 308 298 295 301 310 306 297 288 284 281 283 288 303 305 299 292 283 281 280 278 274 277 281 288 289 290 288 287 290 293 292 286
258 255 250 257 262 267 283 297 297 299 298 298 294 295 291 298 297 294 288 278 276 281 281 285 291 300 301 295 290 288 283 279 280 287 292 288 285 285 286 288 292 290 287
258 257 254 260 264 271 279 287 292 297 296 296 292 291 289 290 295 292 289 282 278 285 292 295 294 293 295 296 291 290 288 285 283 286 287 286 284 284 284 287 292 293 293
263 261 259 260 266 273 275 278 285 290 290 289 285 286 287 287 290 287 285 285 287 288 287 284 287 287 287 290 289 289 290 295 289 286 287 287 285 284 284 287 292 293 295
267 266 262 263 268 273 276 277 279 284 287 286 284 282 282 287 289 287 286 288 290 290 286 285 286 287 286 287 288 292 291 291 290 286 288 288 285 286 288 293 295 297 297
271 271 272 271 271 273 276 277 280 283 284 283 280 280 279 281 285 288 290 293 290 288 289 290 292 290 288 288 290 290 290 288 289 288 287 286 286 287 290 295 297 298 298
272 274 275 275 272 272 276 279 280 283 282 280 278 277 278 281 284 286 287 287 286 285 286 287 287 288 286 286 288 290 290 288 289 289 288 288 288 289 290 294 296 297 299
274 277 277 275 273 273 276 279 282 284 284 281 281 277 279 281 284 285 287 285 284 284 284 284 281 281 282 282 285 288 291 291 290 287 284 286 289 292 292 295 295 297 301
272 276 278 278 275 273 274 278 280 283 286 284 282 285 284 285 285 286 286 287 288 286 285 283 280 278 279 280 283 286 290 291 291 287 283 284 289 292 294 297 299 299 299
273 277 278 279 278 276 275 275 276 281 281 279 279 281 283 285 286 287 290 288 286 286 287 286 283 280 279 280 280 282 287 289 289 291 288 286 289 294 296 297 298 299 298
275 278 279 279 277 277 277 276 278 280 280 280 279 278 279 281 282 285 287 287 286 284 285 288 286 282 278 278 279 282 284 285 286 288 291 291 292 294 295 295 297 298 297
277 279 279 279 277 277 278 277 277 279 280 280 280 279 277 279 281 281 282 284 286 284 283 284 283 281 280 278 278 280 282 284 284 286 288 290 293 294 295 297 298 298 296
279 278 280 280 279 278 278 277 278 278 278 279 280 280 278 278 279 281 282 285 284 283 281 280 280 280 280 279 279 280 283 285 285 285 286 289 292 295 297 299 300 300 299
278 280 280 278 278 279 279 278 279 279 278 278 279 279 278 277 277 277 280 282 282 281 279 277 276 279 282 282 282 283 284 285 285 285 287 288 289 293 296 296 298 299 299
273 278 280 279 277 277 279 280 281 280 280 279 278 277 277 277 276 276 277 279 280 280 278 275 273 276 280 282 283 282 283 284 285 286 288 289 289 291 293 295 297 298 300
274 278 280 279 278 278 278 279 280 280 281 280 278 278 277 276 275 274 276 276 277 278 274 273 273 276 279 280 279 278 280 282 283 286 288 288 288 290 292 293 296 299 301
274 275 276 274 276 277 277 277 275 279 281 281 281 279 279 278 274 274 274 275 275 275 274 273 273 276 280 280 277 276 277 280 282 285 288 289 288 289 290 292 295 297 299
273 273 274 274 275 277 276 274 272 273 278 280 280 279 277 277 276 274 273 272 271 272 273 272 274 277 281 281 278 276 277 281 284 285 288 290 290 291 291 292 293 295 297
271 272 274 275 273 274 272 273 273 273 275 277 279 277 277 277 277 276 275 274 273 272 272 273 274 275 276 278 278 278 281 285 284 284 286 287 289 291 292 292 291 293 295
272 273 275 274 272 272 271 271 271 271 274 275 276 277 278 278 277 275 274 273 272 270 271 272 273 275 275 276 278 281 283 285 285 286 287 287 288 288 291 291 291 292 293
272 273 273 273 273 271 272 271 269 269 271 272 274 274 276 277 276 275 274 273 274 273 271 271 273 275 275 277 277 279 282 285 286 285 284 284 285 286 289 290 293 294 293